Weather History for Sisters Island, BC

Change the Weather History Date:

Monday, January 21, 2013

  Actual Average Record
Temperature  
Mean Temperature 34 °F -  
Max Temperature 35 °F - - ()
Min Temperature 34 °F - - ()
Degree Days  
Heating Degree Days 30    
Moisture  
Dew Point 34 °F    
Average Humidity 97    
Maximum Humidity 97    
Minimum Humidity 93    
Precipitation  
Precipitation 0.00 in - - ()
Sea Level Pressure  
Sea Level Pressure 30.20 in    
Wind  
Wind Speed 4 mph ()    
Max Wind Speed 8 mph    
Max Gust Speed -    
T = Trace of Precipitation, MM = Missing Value Source: Averaged Metar Reports

Daily Weather History Graph

Daily Weather History Graph

Search for Another Location

Airport:

Trip Planner

Search our weather history database for the weather conditions in past years. The results will help you decide how hot, cold, wet, or windy it might be!

Date:

Astronomy

Jan. 21, 2013 Rise Set
Actual Time 8:02 AM PST 4:56 PM PST
Civil Twilight 7:26 AM PST 5:31 PM PST
Nautical Twilight 6:47 AM PST 6:11 PM PST
Astronomical Twilight 6:09 AM PST 6:49 PM PST
Moon 12:37 PM PST (1/21) 3:37 AM PST (1/21)
Length of Visible Light 10h 05m
Length of Day
8h 53m
Waxing Gibbous, 76% of the Moon is Illuminated
Jan 21
Waxing Gibbous
Jan 26
Full
Feb 3
Last Quarter
Feb 9
New
Feb 17
First Quarter

Hourly Weather History & Observations

Time (PST) Temp. Windchill Dew Point Humidity Pressure Visibility Wind Dir Wind Speed Gust Speed Precip Events Conditions
12:00 AM 34.5 °F 27.9 °F 33.6 °F 97% 30.29 in - WNW 8.1 mph - N/A   Unknown
2:00 AM 34.9 °F 29.0 °F 34.2 °F 97% 30.28 in - NNW 6.9 mph - N/A   Unknown
3:00 AM 35.1 °F 28.6 °F 34.3 °F 97% 30.27 in - NNW 8.1 mph - N/A   Unknown
4:00 AM 35 °F - 34 °F 96% 30.26 in - WNW 5.8 mph - -  
4:00 AM 35.1 °F 30.1 °F 34.3 °F 97% 30.26 in - WNW 5.8 mph - N/A   Unknown
5:00 AM 35.4 °F 30.5 °F 34.7 °F 97% 30.24 in - WNW 5.8 mph - N/A   Unknown
6:00 AM 35.1 °F 32.2 °F 34.3 °F 97% 30.22 in - NNW 3.5 mph - N/A   Unknown
7:00 AM 34.7 °F - 34.0 °F 97% 30.21 in - NNW 2.3 mph - N/A   Unknown
8:00 AM 34.5 °F 31.6 °F 33.8 °F 97% 30.21 in - North 3.5 mph - N/A   Unknown
9:00 AM 34.5 °F - 33.8 °F 97% 30.22 in - NNE 1.2 mph - N/A   Unknown
10:00 AM 35 °F - 34 °F 95% 30.24 in - West 4.6 mph - -  
10:00 AM 34.9 °F 30.8 °F 34.2 °F 97% 30.24 in - West 4.6 mph - N/A   Unknown
11:00 AM 34.7 °F - 34.0 °F 97% 30.23 in - NW 1.2 mph - N/A   Unknown
12:00 PM 34.7 °F - 34.0 °F 97% 30.22 in - WNW 2.3 mph - N/A   Unknown
1:00 PM 34.9 °F - 34.2 °F 97% 30.19 in - South 1.2 mph - N/A   Unknown
2:00 PM 34.9 °F - 34.2 °F 97% 30.18 in - NE 2.3 mph - N/A   Unknown
3:00 PM 34.5 °F - 33.6 °F 97% 30.16 in - SW 2.3 mph - N/A   Unknown
4:00 PM 35 °F - 34 °F 93% 30.16 in - NE 2.3 mph - -  
4:00 PM 34.5 °F - 33.8 °F 97% 30.16 in - NE 2.3 mph - N/A   Unknown
5:00 PM 34.3 °F - 33.6 °F 97% 30.14 in - Calm Calm - N/A   Unknown
6:00 PM 34.3 °F - 33.6 °F 97% 30.14 in - SSW 1.2 mph - N/A   Unknown
7:00 PM 34.5 °F - 33.8 °F 97% 30.14 in - SW 2.3 mph - N/A   Unknown
8:00 PM 34.5 °F - 33.6 °F 97% 30.14 in - ESE 2.3 mph - N/A   Unknown
9:00 PM 34.5 °F 28.6 °F 33.6 °F 97% 30.13 in - East 6.9 mph - N/A   Unknown
10:00 PM 35 °F - 34 °F 94% 30.12 in - ESE 6.9 mph - -  
10:00 PM 34.9 °F 29.0 °F 34.0 °F 97% 30.12 in - ESE 6.9 mph - N/A   Unknown
11:00 PM 35.1 °F 30.1 °F 33.8 °F 95% 30.13 in - ESE 5.8 mph - N/A   Unknown